カタログに戻る

STARLINK-1526

運用中通信VLEO
NORAD 46029·PAYLOAD·🇺🇸 United States

打ち上げ Aug 7, 2020 から Cape Canaveral Space Force Station

Loading…

次のパス (今後24時間)

TLE

最新Source: CelesTrak SupGP

元期: Sep 15, 2026, 00:52 UTC

1 46029C 20055C   26258.03659722  .00049835  00000+0  16025-2 0  2582
2 46029  53.1591 326.2431 0001288  87.9576 279.5678 15.31678863    12

AllMySatでSTARLINK-1526をリアルタイム追跡

Download on the App Store